Location: Unspecified
(0.0000°N, 0.0000°E)
Time: 11:46:14
(UTC+00:00)

Explorer 11/Cluster Stage 4 - Pass Details

Date: 08 October 2020
Orbit: 467 x 1258 km, 28.8° (Epoch: 28 October)

Event Time Altitude Azimuth Distance (km) Brightness Sun altitude
Rises 04:40:39 0° 296° (WNW) 3,563 - -16.6°
Reaches altitude 10° 04:43:05 10° 295° (WNW) 2,730 - -16.0°
Exits shadow 04:44:56 21° 292° (WNW) 2,130 8.2 -15.6°
Maximum altitude 04:49:54 74° 210° (SSW) 1,164 7.3 -14.3°
Drops below altitude 10° 04:57:57 10° 126° (SE) 3,185 10.7 -12.3°
Sets 05:01:00 0° 124° (SE) 4,188 11.5 -11.6°
